Lapse_Rate
6.6 6.5 6.4 6.3 6.3 6.1 6.0 5.9 5.6 5.6 5.6 5.6 5.5 5.5 5.5 5.6 5.7 5.9 5.9 6.0 6.2 6.5 6.7 6.7 6.8 7.0 6.9 7.0 7.0 6.8 6.6 6.6 6.5 6.4 6.4 6.2 6.1 6.1 6.1 6.0 5.9 6.0 6.1 5.7 5.7
6.9 6.7 6.6 6.5 6.4 6.3 6.1 5.9 5.8 5.6 5.7 5.7 5.6 5.6 5.6 5.8 5.9 5.9 5.9 6.0 6.1 6.3 6.2 6.3 6.4 6.7 6.9 6.7 6.8 6.7 6.6 6.9 6.6 6.2 6.4 6.2 6.1 6.0 5.7 5.8 5.9 5.8 5.6 5.6 5.7
7.0 7.0 6.8 6.6 6.5 6.4 6.3 6.1 5.8 5.8 5.7 5.7 5.6 5.6 5.8 6.0 6.0 5.9 5.7 5.7 5.8 6.1 6.1 5.9 6.3 6.2 6.3 6.5 6.7 6.4 6.9 7.0 7.0 6.4 6.5 6.5 6.0 5.8 5.7 5.6 5.6 5.6 5.7 5.9 5.7
7.2 7.1 7.1 6.8 6.6 6.4 6.4 6.3 6.1 6.0 5.8 5.7 5.6 5.7 6.0 6.1 6.0 5.7 5.8 6.0 6.2 6.0 5.9 5.8 6.1 6.2 5.9 6.3 6.7 6.7 6.8 7.0 7.1 6.7 6.5 6.4 5.8 5.7 5.8 5.6 5.6 5.7 5.9 5.8 5.5
7.3 7.2 7.2 7.1 6.8 6.6 6.5 6.4 6.4 6.3 6.1 5.8 5.6 5.8 6.2 6.2 5.9 5.8 6.1 6.4 6.5 6.1 5.9 6.1 6.1 6.3 6.2 6.4 6.6 6.9 7.0 6.8 6.9 6.7 6.5 6.4 6.0 5.9 5.9 5.5 5.5 5.7 5.8 5.6 5.8
7.2 7.2 7.2 7.1 7.1 6.8 6.7 6.4 6.4 6.5 6.4 6.0 5.8 5.8 6.1 6.4 6.2 6.3 6.6 6.5 6.7 6.2 6.5 6.8 6.5 6.6 6.6 6.7 6.8 7.0 7.1 6.7 6.5 6.5 6.5 6.2 5.9 6.0 5.7 5.6 5.7 5.8 5.9 5.7 5.8
6.9 6.9 7.0 7.0 7.1 6.9 6.8 6.7 6.5 6.6 6.6 6.3 5.9 5.8 6.1 6.4 6.4 6.7 6.9 6.8 6.7 6.4 6.7 6.5 7.0 6.7 6.4 6.6 6.7 6.5 6.6 6.6 6.6 6.3 6.4 6.2 6.0 5.9 5.6 5.8 5.5 5.5 5.8 5.9 5.8
6.9 6.9 6.9 7.0 7.0 6.9 6.9 6.8 6.7 6.7 6.7 6.5 6.2 6.1 6.2 6.5 6.6 6.9 7.1 7.0 6.8 6.4 6.5 6.4 7.1 6.8 6.5 6.6 6.7 6.6 6.5 6.9 7.1 6.7 6.6 6.4 6.1 6.1 5.8 5.8 5.4 5.6 5.7 5.7 5.6
6.9 6.8 6.8 6.9 6.9 6.8 6.9 6.8 6.7 6.6 6.8 6.9 6.7 6.5 6.6 6.7 6.7 6.9 7.1 7.0 6.9 6.5 6.5 7.0 7.1 7.0 6.8 6.8 7.0 7.1 7.3 7.4 7.5 7.2 6.8 6.5 6.3 6.5 6.1 6.1 5.7 5.8 5.7 5.6 5.4
6.8 6.7 6.7 6.7 6.7 6.7 6.7 6.8 6.7 6.6 6.8 7.1 6.9 6.6 6.8 6.8 6.9 7.0 7.5 7.6 7.6 7.0 6.8 7.3 7.4 7.1 7.0 7.3 7.6 7.6 7.4 7.3 7.2 7.0 6.6 6.4 6.5 6.6 6.3 6.3 6.1 5.8 5.7 5.6 5.8
7.0 6.8 6.7 6.7 6.7 6.6 6.5 6.5 6.5 6.4 6.5 6.8 6.9 6.9 6.9 6.9 7.1 7.2 7.4 7.6 7.8 7.5 7.1 7.4 7.7 7.4 7.3 7.3 7.3 7.2 7.1 7.1 6.7 6.7 6.5 6.5 6.5 6.8 6.5 6.3 6.5 6.1 6.0 6.3 6.2
7.0 6.8 6.6 6.5 6.6 6.6 6.6 6.7 6.5 6.3 6.4 6.6 6.8 6.8 7.2 7.3 7.3 7.4 7.4 7.6 8.0 7.8 7.5 7.8 7.9 7.7 7.4 7.4 7.4 7.3 7.0 7.2 7.0 6.6 6.6 6.6 6.5 6.9 7.0 6.7 6.4 6.6 6.4 5.9 6.2
6.8 6.8 6.7 6.7 6.7 6.8 6.9 6.8 6.7 6.7 6.8 6.8 6.8 6.9 7.4 7.8 7.8 7.8 8.0 8.0 8.0 7.9 7.9 7.7 7.8 8.0 7.5 7.4 7.5 7.6 7.4 7.3 7.1 6.8 6.7 6.9 6.7 6.6 6.9 6.7 6.5 6.6 6.8 6.2 6.1
6.9 6.9 7.0 7.0 7.0 7.1 7.2 7.1 7.1 7.1 7.3 7.2 7.0 7.2 7.7 8.0 8.0 7.8 8.0 8.0 7.9 7.7 7.9 8.1 8.0 7.8 7.7 7.8 7.8 7.6 7.6 7.1 7.2 7.0 6.9 7.0 7.2 7.0 6.8 6.8 6.9 6.5 6.6 6.6 6.4
7.1 7.1 7.2 7.6 7.7 7.9 7.6 7.5 7.5 7.5 7.9 7.7 7.7 7.9 8.1 8.0 8.2 8.1 8.3 7.6 7.9 8.0 7.7 8.0 7.9 7.7 7.8 7.8 7.7 7.9 7.5 7.1 7.0 7.0 7.1 7.0 6.7 7.3 7.1 6.9 7.2 7.1 6.9 6.6 6.4
7.4 7.4 7.6 7.9 8.1 8.1 8.0 7.9 7.9 7.9 7.9 7.7 7.9 8.0 8.2 8.2 8.3 8.4 8.2 8.0 8.1 7.9 7.9 8.2 8.0 7.8 7.6 8.0 7.5 7.9 7.5 7.3 7.1 7.0 7.3 6.6 6.7 7.7 7.5 7.6 7.4 7.2 7.2 7.0 6.7
7.5 7.6 7.9 8.1 8.3 8.3 8.1 8.1 8.1 8.0 7.9 7.7 7.8 8.0 7.9 8.1 8.0 8.2 8.1 8.0 7.8 7.8 8.0 8.1 8.2 8.1 7.9 7.9 7.6 7.5 7.6 7.9 8.0 7.7 7.8 6.8 6.6 8.3 8.0 7.9 7.6 7.4 7.1 7.1 7.0
7.5 7.6 7.8 7.9 8.0 8.0 8.0 8.1 8.2 8.2 8.0 7.8 7.8 8.0 8.0 8.0 8.0 8.1 8.1 7.8 7.7 7.6 7.7 7.9 8.4 8.6 8.3 8.1 7.8 7.7 7.6 7.7 7.9 7.9 7.6 7.0 6.9 7.9 7.9 8.0 8.0 7.8 7.4 7.2 6.8
7.4 7.5 7.6 7.8 7.9 7.9 8.0 8.1 8.1 8.3 8.4 8.3 8.2 8.1 8.1 8.1 8.1 8.1 8.1 7.9 7.7 7.7 7.6 7.9 8.4 8.4 8.5 8.3 7.9 7.7 7.3 7.4 7.3 6.7 6.6 7.6 8.3 7.8 7.7 7.9 7.8 7.7 7.6 7.3 7.1
7.5 7.5 7.4 7.5 7.7 7.8 7.8 8.1 8.1 8.3 8.7 8.7 8.5 8.6 8.7 8.5 8.3 8.3 8.3 8.6 8.1 8.2 8.1 8.2 8.3 8.4 8.5 8.5 8.2 7.8 7.8 7.9 7.7 7.8 8.4 8.3 8.3 8.2 7.8 7.9 8.1 7.9 7.6 7.5 7.3
7.1 7.3 7.4 7.5 7.4 7.6 7.8 8.1 8.4 8.6 8.5 8.7 8.7 8.8 8.8 8.8 8.9 8.9 9.0 9.3 9.3 9.3 8.6 8.4 8.4 8.6 8.5 8.4 8.5 8.2 7.9 7.9 7.6 7.7 8.1 8.4 8.8 8.1 8.0 7.7 7.9 8.1 8.0 7.6 7.3
6.8 6.8 7.0 7.3 7.4 7.5 7.7 8.1 8.3 8.3 8.7 8.6 8.7 8.7 8.8 8.8 8.8 8.8 9.0 9.1 9.2 9.2 9.3 9.0 8.5 8.6 8.4 8.4 8.3 8.2 8.2 8.1 7.9 7.6 7.6 7.6 8.2 8.5 8.1 7.8 7.9 8.0 7.9 7.4 7.2
6.7 6.8 6.9 6.9 6.9 7.2 7.5 7.6 7.9 8.2 8.2 8.4 8.5 8.6 8.6 8.7 8.7 9.0 9.2 9.1 9.1 9.1 8.9 9.1 8.3 8.8 8.9 8.7 8.4 8.5 8.5 8.4 8.2 8.0 8.2 8.3 8.6 8.3 8.0 7.7 7.7 7.9 8.0 7.3 6.6
6.1 6.2 6.4 6.5 6.5 6.8 7.1 7.4 7.5 7.6 8.0 8.1 8.2 8.4 8.4 8.7 8.9 8.8 9.0 8.9 9.0 8.9 8.9 8.7 9.0 8.8 9.0 9.1 9.0 8.8 8.7 8.6 8.2 7.8 8.3 8.4 8.7 8.6 8.4 7.9 7.7 7.8 7.9 7.6 6.9
5.9 6.0 6.1 5.9 6.0 6.3 6.5 6.9 7.2 7.2 7.6 7.9 8.0 8.0 8.0 8.2 8.3 8.5 8.7 8.7 9.0 9.1 9.3 8.7 8.6 9.0 9.1 9.3 9.2 9.1 8.9 8.8 8.6 8.0 7.9 8.6 8.8 8.5 8.2 8.1 7.9 7.9 7.8 7.8 7.4
5.8 5.7 5.5 5.6 5.7 5.9 6.0 6.4 6.7 6.9 7.2 7.4 7.7 8.0 7.8 8.1 8.0 8.3 8.6 8.8 8.8 8.9 9.0 8.9 8.7 8.8 9.1 9.1 9.0 9.0 8.9 8.7 8.5 8.3 8.3 8.5 8.9 8.7 8.1 7.9 8.0 7.9 7.7 7.8 7.7
5.6 5.4 5.4 5.5 5.5 5.6 5.7 6.0 6.3 6.8 6.9 6.9 7.3 7.5 7.9 8.1 7.8 8.3 8.5 8.6 8.6 8.6 8.5 8.6 8.7 8.8 9.0 9.1 8.8 8.8 9.1 9.0 9.0 8.5 8.5 8.5 9.0 8.8 8.4 8.1 8.0 7.9 7.6 7.5 7.5
Wind_Speed
14 11 9 7 5 5 6 8 8 7 7 7 8 9 10 12 7 2 6 4 3 12 12 11 6 3 2 2 1 2 3 5 3 2 2 6 4 4 4 10 2 3 5 8 17
14 11 9 6 5 5 6 9 9 7 7 7 7 8 8 10 2 7 7 3 5 15 9 9 7 7 1 1 1 3 3 2 2 4 6 6 4 4 4 9 3 5 7 18 16
16 12 8 7 5 5 5 9 8 8 8 7 8 8 8 6 3 2 4 6 10 9 5 2 11 3 1 1 1 2 3 2 5 10 6 9 5 4 5 6 8 12 18 19 16
17 12 9 6 5 5 6 8 8 7 8 8 8 9 10 1 1 2 2 12 12 7 5 7 6 4 2 2 1 4 1 3 6 6 8 7 8 5 1 5 6 12 20 17 15
17 13 9 7 5 5 7 8 7 7 7 8 8 9 2 2 3 5 13 11 10 7 5 2 3 4 5 5 4 4 5 4 5 11 10 11 8 5 5 5 8 16 18 17 14
17 14 9 7 5 4 6 8 7 6 7 7 7 8 2 1 2 6 11 10 4 4 3 2 4 2 5 2 2 3 4 4 6 8 6 7 4 0 3 6 12 17 15 14 13
19 14 10 7 6 5 6 7 8 5 6 6 6 3 1 3 2 8 5 3 1 2 1 2 4 3 1 3 3 1 4 5 6 5 4 7 6 4 7 8 13 14 13 12 11
20 16 11 7 6 6 7 8 7 4 4 5 4 2 1 4 7 8 8 6 6 6 2 3 6 6 3 2 1 0 1 3 5 6 3 2 2 5 8 10 14 13 11 11 10
20 16 12 7 6 7 6 6 5 4 3 4 1 2 2 0 9 6 2 6 5 4 3 2 1 3 3 1 0 1 1 3 1 2 4 4 4 9 10 11 15 14 13 11 10
22 17 13 8 8 8 7 3 1 2 2 2 2 2 3 2 5 8 2 6 3 3 1 2 2 1 2 3 3 2 1 2 2 2 2 4 6 13 13 13 16 15 14 12 14
21 18 14 9 8 7 1 2 2 3 2 2 2 2 2 5 6 8 5 7 3 0 3 1 2 4 8 10 0 2 2 1 1 2 3 4 6 12 15 13 14 15 15 14 16
21 19 14 10 7 7 2 3 0 2 3 2 4 4 3 2 4 9 11 7 5 5 2 4 6 5 5 4 8 7 3 1 1 0 3 3 5 9 16 16 16 16 16 17 17
22 18 15 10 6 2 3 4 1 1 1 1 2 3 3 6 3 14 16 6 5 6 7 7 7 1 5 5 6 9 11 5 1 5 2 3 4 7 10 11 13 15 15 15 16
25 19 14 6 2 3 3 2 1 2 0 1 2 3 5 5 3 8 17 3 3 3 5 7 4 3 4 8 5 5 4 7 6 5 0 3 1 5 11 15 14 16 15 16 17
27 22 13 7 2 3 3 3 5 3 2 2 3 3 3 6 7 7 14 1 7 6 4 3 6 7 13 4 4 3 1 9 5 3 2 2 3 2 6 13 18 19 19 18 17
30 25 5 4 2 3 4 4 2 2 3 1 4 5 6 2 4 5 9 7 2 5 7 14 4 5 2 6 3 11 7 5 3 1 3 3 3 3 6 16 18 18 19 19 18
33 20 9 4 2 2 2 3 2 3 2 1 2 5 6 6 5 6 10 13 8 5 9 7 8 1 2 7 3 0 2 2 1 1 2 2 4 6 8 8 13 20 20 20 19
33 3 5 3 2 5 3 2 3 1 3 2 2 5 6 7 4 3 7 9 5 7 1 3 4 5 6 5 4 5 1 2 4 3 4 2 5 1 6 3 5 9 14 17 17
19 1 1 2 5 3 1 1 1 2 2 3 1 3 3 2 1 3 5 7 9 12 9 4 5 1 5 4 4 5 5 2 1 2 2 2 4 6 6 6 5 6 11 14 14
2 1 4 6 4 1 1 1 2 3 3 1 2 3 8 5 6 3 8 7 10 15 13 6 7 1 1 4 4 4 9 2 1 3 5 2 4 0 5 6 7 5 3 7 7
1 2 3 3 2 2 1 3 4 4 4 3 2 3 2 4 6 5 4 4 7 9 14 8 6 3 3 6 4 4 3 2 1 1 2 4 3 3 5 3 3 5 7 4 9
3 2 4 3 1 1 2 2 3 4 3 2 2 2 3 5 5 6 8 8 5 10 12 10 7 11 15 2 2 3 3 5 4 3 0 3 4 1 4 2 4 5 9 9 8
3 2 2 2 1 1 2 3 3 3 3 1 1 2 1 4 3 6 4 2 8 8 8 10 8 6 6 4 2 5 4 3 4 3 5 4 3 2 4 5 4 9 10 11 12
2 1 2 3 2 2 3 3 3 2 4 2 2 1 2 3 2 2 2 1 4 7 5 6 5 13 13 9 2 4 5 7 10 5 4 9 7 5 9 9 7 8 9 11 9
5 3 2 3 2 4 2 3 4 2 1 1 1 2 1 3 3 3 4 4 4 6 4 9 9 10 13 5 4 3 6 10 12 9 8 7 5 6 11 11 11 11 11 12 11
4 4 6 3 6 5 1 0 4 5 4 1 3 6 7 5 4 3 4 3 2 3 3 5 2 5 8 7 7 7 5 9 12 9 13 15 20 10 8 9 12 13 13 14 13
4 2 2 3 5 5 4 7 4 13 5 6 7 11 10 9 11 13 11 1 1 0 4 5 3 3 5 4 5 6 14 15 11 8 8 11 7 11 11 15 17 16 15 15 15
Wind_Direction
351 350 344 333 329 310 296 290 293 311 319 332 337 335 333 336 323 207 236 232 130 143 138 140 173 176 119 23 346 125 73 91 94 352 333 160 163 76 83 137 137 134 156 154 148
353 353 346 333 322 302 288 285 293 312 320 330 332 329 332 335 282 247 249 189 135 143 140 156 158 158 346 97 354 60 89 119 71 326 265 182 128 140 149 150 109 107 113 138 145
359 359 356 335 321 300 283 283 291 312 319 327 325 323 325 321 254 254 190 179 165 171 131 129 148 172 121 298 85 99 122 173 19 337 241 149 114 129 163 192 192 178 155 152 152
1 3 0 342 329 305 286 281 291 309 317 323 321 322 322 259 22 360 216 153 141 182 165 163 169 170 146 117 104 126 150 172 18 4 128 124 119 102 41 324 280 169 157 152 158
3 4 357 348 327 304 288 285 288 305 312 313 316 324 284 206 317 48 116 123 156 178 206 205 195 159 154 145 150 158 172 82 58 78 97 101 81 108 51 36 122 148 155 161 166
5 4 357 349 329 301 286 290 301 308 305 308 313 318 262 132 327 113 116 125 168 174 191 251 209 134 99 124 193 119 110 77 66 112 112 102 84 164 82 110 132 156 159 169 172
5 4 355 349 328 304 292 290 297 309 305 308 314 295 248 37 82 125 94 37 325 197 124 4 80 55 104 98 91 131 128 151 165 187 126 142 75 71 131 147 147 165 173 174 182
3 3 358 346 332 312 307 302 303 309 299 291 303 254 241 336 158 124 116 88 75 72 98 60 72 103 63 171 53 190 249 201 178 177 143 198 101 154 153 160 164 175 189 190 197
359 1 359 347 330 321 314 302 285 289 243 279 253 283 139 41 150 151 132 108 90 86 97 94 55 75 142 129 132 156 299 302 267 244 131 215 140 165 168 174 176 186 201 201 208
355 357 355 346 327 328 309 264 240 285 187 195 260 251 131 174 151 159 153 135 79 99 263 344 50 164 131 187 341 187 229 221 277 176 222 186 139 159 177 185 188 194 212 205 210
349 354 352 346 324 332 314 210 207 152 171 213 102 321 40 96 123 166 163 160 130 11 256 340 277 245 247 218 102 264 207 70 289 147 225 213 191 182 182 189 194 205 214 223 224
347 347 348 341 319 324 281 251 285 37 321 227 221 279 257 235 125 164 174 180 187 214 233 218 275 272 288 242 233 231 234 177 134 282 207 203 226 193 189 200 203 202 208 221 229
345 346 338 332 308 259 234 239 24 13 273 271 166 186 198 184 189 178 184 186 196 194 214 259 291 333 273 292 235 238 233 195 335 149 133 234 208 186 204 208 210 223 218 221 227
340 341 332 327 251 161 232 137 332 221 161 93 167 146 156 191 186 155 188 194 164 265 249 253 297 280 311 314 258 277 197 200 161 189 60 324 279 217 205 210 211 219 219 226 225
337 333 316 237 346 197 102 328 144 185 54 87 126 129 157 191 135 175 180 147 228 206 245 296 294 317 316 354 201 359 228 148 121 108 182 190 239 141 188 220 220 215 217 221 227
333 331 296 149 221 263 295 146 196 238 58 111 128 143 155 191 142 119 174 230 243 230 235 272 295 283 1 46 146 124 108 101 102 231 243 108 268 212 184 220 216 221 222 221 218
334 332 168 178 113 322 280 198 269 43 354 102 221 158 169 166 178 179 171 192 206 208 247 284 280 293 142 102 170 278 187 285 220 216 0 148 246 265 221 205 215 210 220 225 218
333 142 220 242 285 331 181 277 56 312 288 16 37 115 190 164 173 150 149 185 225 234 195 312 264 187 173 236 213 184 273 319 328 329 306 164 232 168 205 146 215 231 227 227 225
329 184 205 320 242 260 123 5 1 278 322 324 138 137 189 190 254 182 223 231 204 194 219 208 257 271 215 167 189 156 212 62 269 121 263 222 259 256 236 249 214 239 219 211 212
351 313 19 335 166 262 100 242 261 238 314 208 226 206 190 169 183 201 197 213 218 197 209 213 262 197 138 146 93 242 141 175 216 301 324 253 270 266 167 193 164 141 165 184 189
339 91 21 96 266 65 225 240 263 244 221 220 304 169 212 184 202 189 238 252 224 192 203 173 235 190 226 205 228 154 198 128 150 282 284 308 339 202 198 162 131 125 129 144 152
338 98 2 300 179 20 191 230 310 284 195 229 251 251 208 182 189 218 232 232 154 151 184 203 225 251 256 239 300 267 261 220 248 198 202 309 289 337 244 148 141 132 122 120 125
29 333 13 295 232 312 317 268 260 284 287 317 268 234 218 206 235 222 224 284 153 168 181 172 215 240 237 180 156 228 193 188 124 134 220 274 282 57 171 177 148 137 145 131 129
343 37 20 52 21 42 359 275 269 224 267 260 274 137 1 275 244 264 267 250 194 201 199 198 182 209 227 231 121 197 209 202 223 231 221 241 282 210 189 167 157 134 140 154 142
14 46 28 358 60 342 309 304 288 283 224 279 278 225 276 276 260 252 219 274 162 176 130 191 243 208 227 230 231 267 216 190 213 231 230 285 245 220 195 171 149 132 135 148 148
24 4 350 316 305 301 173 132 310 343 304 152 186 335 307 253 264 290 243 203 237 173 141 145 285 213 234 191 214 236 220 223 224 222 246 262 274 214 168 154 147 143 148 151 149
15 11 314 354 344 316 23 350 353 344 282 290 11 335 312 285 267 284 263 238 170 247 161 181 199 220 234 170 171 240 236 218 228 218 245 245 267 159 168 177 161 153 155 152 149